Home > Weather > Rasht > Past weeks

Flag for Iran Past Weather in Rasht, Iran — Yesterday and Last 2 Weeks

Now
75 °F

Passing clouds.


Feels Like: 75 °F
Forecast: 73 / 84 °F
Wind: 5 mph from Southwest

Location: Rasht Airport

Current Time: Jul 26, 2016 at 12:45:37 AM

Latest Report: Jul 25, 2016 at 11:30 PM


Visibility: N/A

Pressure: 29.83 "Hg

Humidity: 83%

Dew Point: 70 °F

Location of RashtLocation

Past Weather in Rasht — Graph

°F

Rasht Temperature Yesterday

Maximum temperature yesterday: 82 °F (at 11:30 AM)
Minimum temperature yesterday: 73 °F (at 12:30 AM)
Average temperature yesterday: 79 °F

High & Low Weather Summary for the Past Weeks

 TemperatureHumidityPressure
High91 °F (Jul 18, 3:30 PM)100% (Jul 10, 10:30 PM)30.15 "Hg (Jul 10, 10:30 PM)
Low64 °F (Jul 14, 4:30 AM)45% (Jul 14, 1:30 PM)29.47 "Hg (Jul 19, 6:00 PM)
Average79 °F80%29.80 "Hg
* Reported Jul 10 10:30 PM — Jul 25 10:30 PM, Rasht, Weather by CustomWeather, © 2016

Note: Actual official high and low records may vary slightly from our data, if they occured in-between our weather recording intervals... More about our weather records

Advertising

Rasht Weather History for the Previous 24 Hours

Scroll right to see more
 ConditionsComfort  
Time TempWeatherWind HumidityBarometerVisibility
10:30 PM
Mon, Jul 25
75 °FPassing clouds.5 mph83%29.83 "HgN/A
9:30 PM75 °FBroken clouds.5 mph78%29.80 "HgN/A
8:30 PM79 °FBroken clouds.No wind79%29.77 "HgN/A
8:00 PM79 °FBroken clouds.No wind79%29.77 "HgN/A
7:30 PM79 °FBroken clouds.No wind79%29.77 "HgN/A
7:00 PM81 °FMore clouds than sun.7 mph74%29.74 "HgN/A
6:30 PM81 °FMore clouds than sun.7 mph74%29.74 "HgN/A
6:00 PM82 °FMore clouds than sun.5 mph70%29.74 "HgN/A
5:30 PM82 °FMore clouds than sun.5 mph70%29.74 "HgN/A
5:00 PM82 °FMore clouds than sun.5 mph70%29.74 "HgN/A
4:30 PM82 °FMore clouds than sun.5 mph70%29.74 "HgN/A
3:30 PM82 °FPartly sunny.7 mph70%29.74 "HgN/A
2:30 PM82 °FBroken clouds.5 mph66%29.74 "HgN/A
2:00 PM81 °FPartly sunny.9 mph74%29.74 "HgN/A
1:30 PM81 °FPartly sunny.9 mph74%29.74 "HgN/A
1:00 PM81 °FMostly cloudy.5 mph79%29.74 "HgN/A
12:30 PM81 °FMostly cloudy.5 mph79%29.74 "HgN/A
12:00 PM82 °FMostly cloudy.7 mph79%29.74 "HgN/A
11:30 AM82 °FMostly cloudy.7 mph79%29.74 "HgN/A
11:00 AM79 °FMostly cloudy.7 mph84%29.74 "HgN/A
10:30 AM79 °FMostly cloudy.7 mph84%29.74 "HgN/A
10:00 AM79 °FPartly sunny.7 mph79%29.74 "HgN/A
9:30 AM79 °FPartly sunny.7 mph79%29.74 "HgN/A
9:00 AM79 °FPartly sunny.5 mph74%29.74 "HgN/A
8:30 AM79 °FPartly sunny.5 mph74%29.74 "HgN/A
8:00 AM77 °FPartly sunny.5 mph79%29.71 "HgN/A
7:30 AM75 °FPassing clouds.5 mph78%29.71 "HgN/A
7:00 AM75 °FPartly cloudy.5 mph83%29.71 "HgN/A
6:30 AM75 °FPartly cloudy.5 mph83%29.71 "HgN/A
5:30 AM75 °FPartly cloudy.5 mph83%29.71 "HgN/A
4:30 AM75 °FPassing clouds.No wind89%29.71 "HgN/A
3:30 AM75 °FPassing clouds.No wind94%29.71 "HgN/A
2:30 AM75 °FPassing clouds.No wind94%29.71 "HgN/A
1:30 AM73 °FPassing clouds.No wind94%29.71 "HgN/A
12:30 AM73 °FPassing clouds.No wind94%29.74 "HgN/A
Weather by CustomWeather, © 2016

See weather overviewHow to use our weather pages